Date String (YYYY-MM-DD hh:mm:ss) UTC,Instrument flags,Ambient pressure (hPa),Sample flow (lpm),Bypass flow (lpm),Sample temperature (°C),Ambient temperature (°C),ASC tube jacket temperature (°C),LED temperature (°C),Box temperature (°C),Sample RH (%),Span deviation,Mass concentration (μg/m³),Mass concentration (μg/m³),Mass concentration (μg/m³)
DateTimeUTC,F1_M11,P_M11,Q1_M11,Q2_M11,T1_M11,T2_M11,T3_M11,T4_M11,T5_M11,U1_M11,ZSPAN_M11,X0_M11,X2_M11,X1_M11
2022-02-06 04:00:00,,0826.7,5.00,0.00,22.3,21.5,00.0,31.4,23.9,08.4,0000.0,0002.59,0001.61,0001.19
2022-02-06 04:01:00,,0826.7,4.99,0.00,22.2,21.5,00.0,31.3,23.9,08.4,0000.0,0003.01,0001.81,0001.34
2022-02-06 04:02:00,,0826.7,5.00,0.00,22.2,21.4,00.0,31.3,23.9,08.2,0000.0,0004.10,0001.99,0001.46
2022-02-06 04:03:00,,0826.7,4.99,0.00,22.2,21.4,00.0,31.3,23.9,08.2,0000.0,0005.56,0002.10,0001.58
2022-02-06 04:04:00,,0826.8,5.01,0.00,22.2,21.4,00.0,31.3,23.8,08.3,0000.0,0005.72,0002.28,0001.72
2022-02-06 04:05:00,,0826.8,4.99,0.00,22.2,21.7,00.0,31.3,23.9,08.3,0000.0,0005.83,0002.43,0001.87
2022-02-06 04:06:00,,0826.8,5.00,0.00,22.3,22.3,00.0,31.3,24.1,08.4,0000.0,0006.94,0002.59,0002.02
2022-02-06 04:07:00,,0826.8,5.00,0.00,22.4,23.0,00.0,31.3,24.4,08.3,0000.0,0007.78,0002.64,0002.10
2022-02-06 04:08:00,,0826.8,5.00,0.00,22.5,22.9,00.0,31.4,24.4,08.1,0000.0,0007.79,0002.63,0002.11
2022-02-06 04:09:00,,0827.0,4.99,0.00,22.5,22.7,00.0,31.4,24.4,07.8,0000.0,0007.93,0002.59,0002.09
2022-02-06 04:10:00,,0827.0,5.00,0.00,22.5,22.5,00.0,31.4,24.4,08.1,0000.0,0007.98,0002.51,0002.06
2022-02-06 04:11:00,,0826.8,5.00,0.00,22.5,22.4,00.0,31.4,24.4,08.2,0000.0,0007.84,0002.43,0002.04
2022-02-06 04:12:00,,0826.8,5.00,0.00,22.6,22.3,00.0,31.4,24.4,08.2,0000.0,0007.79,0002.40,0002.01
2022-02-06 04:13:00,,0826.8,5.01,0.00,22.6,22.2,00.0,31.4,24.4,08.2,0000.0,0007.40,0002.38,0002.04
2022-02-06 04:14:00,,0826.8,4.99,0.00,22.6,22.2,00.0,31.4,24.4,08.1,0000.0,0006.24,0002.42,0002.06
2022-02-06 04:15:00,,0826.9,5.01,0.00,22.6,22.1,00.0,31.4,24.4,07.9,0000.0,0006.13,0002.38,0002.03
2022-02-06 04:16:00,,0827.0,5.00,0.00,22.6,22.1,00.0,31.4,24.4,07.7,0000.0,0006.08,0002.33,0001.98
2022-02-06 04:17:00,,0827.0,4.99,0.00,22.6,22.0,00.0,31.5,24.4,08.1,0000.0,0005.53,0002.30,0001.95
2022-02-06 04:18:00,,0827.0,5.01,0.00,22.6,22.0,00.0,31.5,24.3,08.3,0000.0,0004.12,0002.35,0001.99
2022-02-06 04:19:00,,0827.0,4.98,0.00,22.6,22.0,00.0,31.5,24.3,08.3,0000.0,0004.27,0002.43,0002.04
2022-02-06 04:20:00,,0827.0,5.02,0.00,22.5,21.9,00.0,31.5,24.3,08.3,0000.0,0004.16,0002.50,0002.10
2022-02-06 04:21:00,,0827.0,4.99,0.00,22.5,21.9,00.0,31.5,24.3,08.3,0000.0,0003.94,0002.59,0002.15
2022-02-06 04:22:00,,0827.0,5.00,0.00,22.5,21.9,00.0,31.5,24.3,08.2,0000.0,0004.15,0002.68,0002.21
2022-02-06 04:23:00,,0827.1,4.99,0.00,22.5,21.9,00.0,31.5,24.3,08.2,0000.0,0004.41,0002.72,0002.24
2022-02-06 04:24:00,,0827.1,4.99,0.00,22.5,21.8,00.0,31.5,24.2,08.2,0000.0,0004.33,0002.74,0002.25
2022-02-06 04:25:00,,0827.1,5.00,0.00,22.5,21.8,00.0,31.5,24.2,08.3,0000.0,0004.45,0002.83,0002.27
2022-02-06 04:26:00,,0827.1,4.99,0.00,22.4,21.8,00.0,31.5,24.2,08.3,0000.0,0004.63,0002.88,0002.31
2022-02-06 04:27:00,,0827.1,5.01,0.00,22.4,21.8,00.0,31.4,24.2,08.2,0000.0,0004.94,0002.97,0002.37
2022-02-06 04:28:00,,0827.2,4.99,0.00,22.4,21.7,00.0,31.4,24.1,08.1,0000.0,0005.00,0003.02,0002.42
2022-02-06 04:29:00,,0827.1,5.01,0.00,22.4,21.7,00.0,31.4,24.1,08.1,0000.0,0004.88,0002.99,0002.39
2022-02-06 04:30:00,,0827.2,5.01,0.00,22.4,21.7,00.0,31.4,24.1,08.1,0000.0,0005.33,0002.97,0002.38
2022-02-06 04:31:00,,0827.5,4.99,0.00,22.4,21.7,00.0,31.4,24.1,08.1,0000.0,0005.61,0002.95,0002.36
2022-02-06 04:32:00,,0827.6,5.02,0.00,22.4,21.7,00.0,31.4,24.1,08.1,0000.0,0005.76,0002.95,0002.35
2022-02-06 04:33:00,,0827.8,5.00,0.00,22.4,21.7,00.0,31.4,24.1,08.3,0000.0,0005.87,0002.95,0002.32
2022-02-06 04:34:00,,0827.4,5.00,0.00,22.4,21.7,00.0,31.4,24.1,08.5,0000.0,0005.83,0002.95,0002.31
2022-02-06 04:35:00,,0827.4,4.99,0.00,22.3,21.7,00.0,31.4,24.1,08.5,0000.0,0005.96,0002.99,0002.30
2022-02-06 04:36:00,,0827.7,5.02,0.00,22.3,21.7,00.0,31.4,24.1,08.3,0000.0,0005.81,0002.96,0002.29
2022-02-06 04:37:00,,0827.8,5.00,0.00,22.3,21.6,00.0,31.4,24.1,08.3,0000.0,0005.62,0002.92,0002.27
2022-02-06 04:38:00,,0827.4,5.00,0.00,22.3,21.6,00.0,31.4,24.0,08.2,0000.0,0006.39,0002.92,0002.25
2022-02-06 04:39:00,,0827.2,4.99,0.00,22.3,21.6,00.0,31.4,24.0,08.2,0000.0,0006.88,0002.91,0002.25
2022-02-06 04:40:00,,0827.3,5.01,0.00,22.3,21.6,00.0,31.3,24.0,08.3,0000.0,0007.09,0002.96,0002.24
2022-02-06 04:41:00,,0827.3,4.99,0.00,22.3,21.5,00.0,31.3,24.0,08.2,0000.0,0006.74,0003.00,0002.24
2022-02-06 04:42:00,,0827.3,5.00,0.00,22.3,21.5,00.0,31.3,24.0,08.1,0000.0,0006.70,0003.03,0002.22
2022-02-06 04:43:00,,0827.4,5.01,0.00,22.3,21.5,00.0,31.3,24.0,08.1,0000.0,0007.02,0003.01,0002.20
2022-02-06 04:44:00,,0827.4,4.99,0.00,22.3,21.5,00.0,31.3,24.0,08.0,0000.0,0006.87,0002.97,0002.19
2022-02-06 04:45:00,,0827.4,5.00,0.00,22.2,21.5,00.0,31.3,24.0,08.1,0000.0,0006.74,0002.94,0002.18
2022-02-06 04:46:00,,0827.4,5.00,0.00,22.2,21.5,00.0,31.3,24.0,08.1,0000.0,0006.53,0002.88,0002.17
2022-02-06 04:47:00,,0827.4,5.00,0.00,22.2,21.5,00.0,31.3,24.0,08.1,0000.0,0006.46,0002.82,0002.15
2022-02-06 04:48:00,,0827.4,5.01,0.00,22.2,21.5,00.0,31.3,24.0,08.5,0000.0,0006.41,0002.78,0002.13
2022-02-06 04:49:00,,0827.4,4.99,0.00,22.2,21.5,00.0,31.3,23.9,08.4,0000.0,0005.35,0002.74,0002.12
2022-02-06 04:50:00,,0827.5,5.01,0.00,22.2,21.5,00.0,31.3,23.9,08.3,0000.0,0004.88,0002.71,0002.09
2022-02-06 04:51:00,,0827.5,4.99,0.00,22.2,21.5,00.0,31.3,23.9,08.3,0000.0,0004.62,0002.62,0002.08
2022-02-06 04:52:00,,0827.5,5.01,0.00,22.2,21.5,00.0,31.2,23.9,08.4,0000.0,0004.42,0002.55,0002.06
2022-02-06 04:53:00,,0827.5,4.99,0.00,22.2,21.5,00.0,31.2,23.9,08.3,0000.0,0004.09,0002.48,0002.05
2022-02-06 04:54:00,,0827.5,5.01,0.00,22.2,21.7,00.0,31.3,24.0,08.3,0000.0,0003.54,0002.44,0002.03
2022-02-06 04:55:00,,0827.5,5.00,0.00,22.3,22.4,00.0,31.3,24.2,08.2,0000.0,0003.53,0002.43,0002.00
2022-02-06 04:56:00,,0827.5,4.98,0.00,22.5,23.0,00.0,31.3,24.4,08.3,0000.0,0003.44,0002.42,0001.98
2022-02-06 04:57:00,,0827.4,5.00,0.00,22.6,22.9,00.0,31.4,24.5,08.2,0000.0,0003.48,0002.43,0001.96
2022-02-06 04:58:00,,0827.4,5.00,0.00,22.6,22.8,00.0,31.4,24.5,08.2,0000.0,0003.46,0002.40,0001.94
2022-02-06 04:59:00,,0827.5,5.01,0.00,22.6,22.6,00.0,31.4,24.5,08.0,0000.0,0003.51,0002.38,0001.91
